[[{"header":{"parameterUnit":"m.s-1","parameterCategory":1,"la1":30.2991,"la2":30.254,"lo1":-89.0895,"lo2":-89.0444,"dy":0.0017,"dx":0.0017,"nx":28,"ny":28,"refTime":"2023-09-19T09:00:00:Z","depth":0,"parameterNumber":2,"parameterNumberName":"U-component_of_WINDS"},"data":[0,0,0,0,0,0,0,0,0,0,0,0,0,0,0,0,0,0,0,0,0,0,0,0,0,0,0,0,0,0,0,0,0,0,0,0,0,0,0,0,0,0,0,0,0,0,0,0,0,0,0,0,0,0,0,0,0,0,-0.2692,-0.2693,0,-0.2773,-0.2774,-0.2775,-0.2873,-0.2874,-0.2876,-0.2877,-0.2958,-0.2959,-0.2959,0,0,0,0,0,0,0,0,0,0,0,0,0,-0.2621,-0.2622,-0.2692,-0.2693,-0.2694,-0.2773,-0.2774,-0.2775,-0.2873,-0.2875,-0.2876,-0.2878,-0.2958,-0.2959,-0.2959,0,0,0,0,0,0,0,0,0,0,0,0,0,-0.2672,-0.2622,-0.2692,-0.2752,-0.2759,-0.2773,-0.2774,-0.2775,-0.2872,-0.2875,-0.2877,-0.2879,-0.2957,-0.2958,-0.2959,-0.292,0,0,-0.2963,-0.2963,0,0,0,0,0,0,0,0,-0.2669,-0.2674,-0.2742,-0.2748,-0.2755,-0.2815,-0.2779,-0.2824,-0.2872,-0.2829,-0.2877,-0.288,-0.2908,-0.2914,-0.2924,-0.2924,-0.2927,-0.2963,-0.2963,-0.2964,-0.2964,0,0,0,0,0,0,0,-0.2665,-0.2671,-0.2724,-0.2743,-0.2751,-0.2775,-0.2785,-0.2788,-0.2855,-0.2833,-0.284,-0.2849,-0.2912,-0.2922,-0.2926,-0.2928,-0.2963,-0.2964,-0.2964,-0.2965,-0.2902,-0.2899,0,0,0,0,0,0,-0.2653,-0.2668,-0.2721,-0.2726,-0.2717,-0.2774,-0.2785,-0.2794,-0.2855,-0.2867,-0.2846,-0.2853,-0.2919,-0.2925,-0.2929,-0.2889,-0.2964,-0.2965,-0.2966,-0.2904,-0.2901,-0.2899,0,0,0,0,0,0,-0.2651,-0.2657,-0.2718,-0.2699,-0.2709,-0.2773,-0.2782,-0.2794,-0.2804,-0.2865,-0.2878,-0.2845,-0.2922,-0.2928,-0.2922,-0.2893,-0.2965,-0.2966,-0.2907,-0.2903,-0.29,-0.2805,0,0,0,0,0,0,-0.2648,-0.2655,-0.2641,-0.2698,-0.2709,-0.2709,-0.278,-0.2794,-0.2806,-0.2815,-0.2867,-0.2877,-0.2924,-0.292,-0.2923,-0.2895,-0.2967,-0.291,-0.2905,-0.2901,-0.2811,-0.2799,-0.2788,0,0,0,0,0,-0.2645,-0.261,-0.264,-0.2646,-0.2693,-0.2708,-0.2714,-0.2769,-0.2803,-0.279,-0.2829,-0.2876,-0.2895,-0.2919,-0.2923,-0.2895,-0.2912,-0.2906,-0.2901,-0.2816,-0.2801,-0.2788,0,0,0,0,0,0,-0.2547,-0.2619,-0.2652,-0.2635,-0.2664,-0.2724,-0.2708,-0.2751,-0.2771,-0.2778,-0.2845,-0.2855,-0.2842,-0.2868,-0.2893,-0.2861,-0.291,-0.2906,-0.2844,-0.283,-0.2819,-0.2813,-0.2968,0,0,0,0,0,-0.2523,-0.253,-0.2592,-0.257,-0.2584,-0.2643,-0.2651,-0.2691,-0.2724,-0.2737,-0.2776,-0.2806,-0.2819,-0.2826,-0.2841,-0.2815,-0.2828,-0.2798,-0.2787,-0.2777,-0.2772,-0.2762,-0.2749,-0.2881,-0.2882,-0.2882,0,0,-0.2474,-0.2514,-0.2514,-0.2552,-0.2579,-0.2584,-0.2653,-0.2655,-0.2659,-0.2737,-0.2735,-0.2764,-0.2802,-0.2786,-0.2781,-0.2807,-0.2739,-0.277,-0.2762,-0.2763,-0.2755,-0.2743,-0.2731,-0.2878,-0.2879,-0.2879,0,0,-0.2388,-0.2418,-0.2405,-0.2431,-0.2473,-0.2513,-0.2509,-0.2563,-0.2586,-0.2585,-0.2644,-0.2649,-0.267,-0.2695,-0.271,-0.2634,-0.2679,-0.2637,-0.2578,-0.2566,-0.2556,-0.2547,-0.2521,-0.2511,-0.2632,-0.2632,-0.2632,0,-0.2322,-0.2332,-0.2392,-0.2391,-0.2406,-0.2478,-0.2464,-0.2487,-0.253,-0.2539,-0.2568,-0.2597,-0.2627,-0.2619,-0.2601,-0.261,-0.2609,-0.2632,-0.2553,-0.2544,-0.2537,-0.2513,-0.2503,-0.2627,-0.2628,-0.2628,-0.2629,0,-0.2249,-0.2255,-0.2239,-0.2281,-0.2294,-0.2286,-0.2345,-0.2351,-0.2389,-0.2426,-0.2424,-0.2463,-0.2489,-0.2489,-0.2526,-0.2486,-0.2502,-0.2541,-0.2592,-0.2518,-0.2497,-0.2488,-0.262,-0.2621,-0.2623,-0.2624,0,0,-0.2102,-0.2178,-0.2172,-0.2192,-0.2243,-0.2249,-0.2245,-0.2271,-0.2275,-0.2303,-0.2301,-0.2318,-0.2355,-0.2372,-0.2413,-0.2403,-0.2341,-0.2443,-0.2445,-0.2424,-0.23,-0.2271,-0.2259,-0.2371,-0.2369,-0.2368,-0.2298,0,-0.2026,-0.2024,-0.2078,-0.2061,-0.2068,-0.2137,-0.2134,-0.2165,-0.2199,-0.221,-0.2248,-0.2259,-0.2306,-0.2317,-0.231,-0.235,-0.2317,-0.2356,-0.237,-0.237,-0.2359,-0.2248,-0.2217,-0.2149,-0.2289,-0.2288,-0.2287,0,-0.1937,-0.1961,-0.1945,-0.1998,-0.2003,-0.1999,-0.2027,-0.2037,-0.2073,-0.2099,-0.2119,-0.2166,-0.2166,-0.2214,-0.2215,-0.2239,-0.2249,-0.2269,-0.2268,-0.2272,-0.2324,-0.225,-0.2128,-0.2118,-0.2274,-0.2275,-0.2276,0,-0.1833,-0.1861,-0.1856,-0.1871,-0.1932,-0.1928,-0.1954,-0.1993,-0.2005,-0.2029,-0.2038,-0.2062,-0.2075,-0.2092,-0.2144,-0.2174,-0.2139,-0.2191,-0.2161,-0.2159,-0.215,-0.215,-0.2029,-0.2154,-0.2155,-0.2155,-0.2155,0,-0.1742,-0.173,-0.181,-0.1806,-0.1795,-0.1857,-0.1844,-0.1876,-0.191,-0.1914,-0.1975,-0.1977,-0.2045,-0.2055,-0.2096,-0.2091,-0.2096,-0.2117,-0.2128,-0.2112,-0.2109,-0.2119,-0.2126,-0.2152,-0.2153,-0.2153,-0.2154,0,-0.1624,-0.1677,-0.1676,-0.1735,-0.175,-0.1738,-0.1789,-0.1788,-0.1827,-0.1831,-0.1836,-0.1896,-0.1911,-0.1964,-0.1992,-0.202,-0.2002,-0.2023,-0.199,-0.1997,-0.1964,-0.1966,-0.1846,-0.1833,-0.1965,-0.1963,-0.1962,0,-0.1563,-0.1556,-0.1614,-0.1622,-0.1645,-0.1656,-0.1669,-0.173,-0.1741,-0.1783,-0.1778,-0.1798,-0.1817,-0.1838,-0.1884,-0.1905,-0.1928,-0.1884,-0.1931,-0.1916,-0.1928,-0.1929,-0.1929,-0.1874,-0.1872,-0.1871,-0.1869,0,-0.145,-0.1477,-0.1494,-0.1521,-0.1535,-0.1558,-0.1585,-0.1588,-0.1656,-0.1665,-0.1682,-0.1697,-0.1726,-0.1746,-0.1775,-0.1801,-0.1847,-0.1854,-0.1849,-0.1832,-0.1814,-0.1825,-0.1963,-0.1857,-0.1858,-0.1859,-0.186,-0.186,-0.136,-0.1357,-0.1398,-0.1415,-0.1442,-0.1466,-0.1469,-0.1508,-0.1523,-0.1553,-0.1587,-0.16,-0.1638,-0.1682,-0.1705,-0.1716,-0.1741,-0.1732,-0.173,-0.1727,-0.172,-0.1812,-0.1721,-0.1721,-0.1722,-0.1722,-0.1723,0,-0.1251,-0.1281,-0.1296,-0.1333,-0.1346,-0.1389,-0.1421,-0.1429,-0.144,-0.1472,-0.149,-0.1509,-0.1529,-0.1576,-0.16,-0.16,-0.1621,-0.1604,-0.1605,-0.161,-0.1695,-0.1699,-0.1586,-0.1586,-0.1586,-0.1586,-0.1586,-0.1586,-0.1196,-0.1194,-0.1225,-0.1237,-0.1267,-0.1281,-0.1296,-0.1318,-0.1344,-0.1363,-0.138,-0.1411,-0.145,-0.1477,-0.1496,-0.151,-0.1516,-0.1492,-0.1513,-0.1591,-0.1604,-0.1617,-0.162,-0.1493,-0.1493,-0.1427,-0.1426,-0.1426]},{"header":{"parameterUnit":"m.s-1","parameterCategory":1,"la1":30.2991,"la2":30.254,"lo1":-89.0895,"lo2":-89.0444,"dy":0.0017,"dx":0.0017,"nx":28,"ny":28,"refTime":"2023-09-19T09:00:00:Z","depth":0,"parameterNumber":3,"parameterNumberName":"V-component_of_WINDS"},"data":[0,0,0,0,0,0,0,0,0,0,0,0,0,0,0,0,0,0,0,0,0,0,0,0,0,0,0,0,0,0,0,0,0,0,0,0,0,0,0,0,0,0,0,0,0,0,0,0,0,0,0,0,0,0,0,0,0,0,0.9135,0.9133,0,0.901,0.9008,0.9007,0.887,0.8868,0.8866,0.8864,0.874,0.8738,0.8737,0,0,0,0,0,0,0,0,0,0,0,0,0,0.9257,0.9256,0.9135,0.9133,0.9132,0.901,0.9008,0.9007,0.887,0.8868,0.8865,0.8863,0.874,0.8739,0.8737,0,0,0,0,0,0,0,0,0,0,0,0,0,0.9176,0.9255,0.9135,0.9049,0.904,0.901,0.9008,0.9006,0.8871,0.8868,0.8865,0.8862,0.8741,0.8739,0.8737,0.8783,0,0,0.873,0.8729,0,0,0,0,0,0,0,0,0.918,0.9171,0.9063,0.9055,0.9044,0.8952,0.9006,0.8932,0.8871,0.8935,0.8864,0.886,0.8813,0.8805,0.8788,0.8778,0.8772,0.873,0.8728,0.8728,0.8727,0,0,0,0,0,0,0,0.9186,0.9176,0.9085,0.9062,0.905,0.9017,0.9002,0.8991,0.8893,0.8929,0.8919,0.8906,0.8807,0.8791,0.8784,0.877,0.873,0.8728,0.8727,0.8726,0.879,0.8793,0,0,0,0,0,0,0.9204,0.9181,0.9089,0.9082,0.9106,0.9017,0.9,0.8985,0.8892,0.8875,0.8908,0.89,0.8796,0.8787,0.8779,0.8826,0.8728,0.8726,0.8724,0.8787,0.8791,0.8794,0,0,0,0,0,0,0.9208,0.9198,0.9094,0.9129,0.9113,0.9018,0.9002,0.8984,0.8967,0.8876,0.8859,0.8909,0.8793,0.8782,0.8783,0.882,0.8725,0.8723,0.8784,0.8788,0.8792,0.8923,0,0,0,0,0,0,0.9212,0.9199,0.9216,0.913,0.9112,0.91,0.9004,0.8984,0.8963,0.8951,0.8872,0.8857,0.879,0.8787,0.8781,0.8816,0.8721,0.878,0.8786,0.8791,0.8915,0.8931,0.8945,0,0,0,0,0,0.9217,0.9259,0.9217,0.9207,0.913,0.9102,0.9092,0.9013,0.8967,0.8982,0.8924,0.8859,0.8817,0.8788,0.878,0.8815,0.8777,0.8784,0.8791,0.8908,0.8928,0.8945,0,0,0,0,0,0,0.9353,0.9246,0.9199,0.9214,0.9168,0.9079,0.9097,0.9037,0.9004,0.8994,0.8899,0.8882,0.8894,0.8854,0.8823,0.8855,0.8788,0.8793,0.888,0.8898,0.8913,0.8922,0.8719,0,0,0,0,0,0.9385,0.937,0.9278,0.9301,0.9279,0.9193,0.9177,0.912,0.9069,0.9049,0.8991,0.8945,0.8921,0.8907,0.8881,0.8908,0.8889,0.8929,0.8944,0.8957,0.8963,0.8973,0.899,0.8816,0.8816,0.8816,0,0,0.9451,0.9391,0.9387,0.9326,0.9284,0.9271,0.9177,0.9168,0.9158,0.9048,0.9044,0.9,0.8942,0.8956,0.896,0.8924,0.9006,0.8966,0.8977,0.8975,0.8982,0.8999,0.9013,0.8821,0.882,0.8819,0,0,0.9564,0.9518,0.953,0.9489,0.9425,0.9366,0.937,0.9289,0.9255,0.9249,0.9166,0.9153,0.9115,0.9076,0.9052,0.9149,0.9088,0.9143,0.9223,0.9235,0.9248,0.926,0.9294,0.9307,0.9149,0.915,0.915,0,0.9655,0.9631,0.9545,0.954,0.9516,0.9414,0.9426,0.9391,0.9323,0.9309,0.9269,0.9217,0.9171,0.9174,0.9198,0.9181,0.9182,0.9152,0.9253,0.9264,0.9274,0.9305,0.9318,0.9157,0.9156,0.9155,0.9155,0,0.9745,0.973,0.9748,0.9682,0.966,0.9665,0.9579,0.9567,0.9512,0.9458,0.9453,0.9394,0.9353,0.9349,0.9296,0.9344,0.9324,0.9271,0.9201,0.9299,0.9326,0.9338,0.9167,0.9164,0.9162,0.9161,0,0,0.9942,0.9826,0.9835,0.9803,0.9724,0.9712,0.9711,0.9669,0.966,0.9617,0.9614,0.9582,0.9532,0.9504,0.9446,0.9456,0.9536,0.94,0.9398,0.9427,0.9584,0.9625,0.964,0.9494,0.9496,0.9498,0.9589,0,1.004,1.0031,0.9953,0.9967,0.9952,0.9855,0.9854,0.9807,0.9756,0.9736,0.9681,0.966,0.9595,0.9577,0.9583,0.9525,0.9566,0.9517,0.9491,0.9491,0.9508,0.9654,0.9697,0.9786,0.9599,0.9601,0.9602,0,1.0154,1.0115,1.0128,1.0047,1.0038,1.0039,0.9993,0.9975,0.9919,0.9882,0.985,0.9784,0.9778,0.9713,0.9704,0.9673,0.9657,0.9627,0.9629,0.9623,0.9552,0.9652,0.9812,0.9826,0.9619,0.9617,0.9616,0,1.0295,1.0246,1.0246,1.0222,1.0129,1.0132,1.0093,1.0034,1.0013,0.9974,0.9959,0.9921,0.99,0.9872,0.9797,0.9757,0.9796,0.9726,0.9765,0.9767,0.9777,0.9778,0.9937,0.9769,0.9769,0.9769,0.9768,0,1.0414,1.0425,1.0308,1.0308,1.0318,1.0228,1.024,1.0192,1.014,1.013,1.0044,1.0037,0.9938,0.992,0.9861,0.9862,0.9853,0.9823,0.9807,0.983,0.9834,0.9819,0.981,0.9772,0.9771,0.9771,0.977,0,1.0573,1.0495,1.0489,1.04,1.0378,1.0389,1.0313,1.031,1.0254,1.0242,1.0234,1.0146,1.0119,1.0042,0.9996,0.9957,0.9975,0.9945,0.9993,0.9983,1.0026,1.0023,1.0181,1.0197,1.002,1.0022,1.0024,0,1.0653,1.0658,1.057,1.0556,1.0521,1.05,1.0478,1.0389,1.037,1.0306,1.0311,1.0277,1.0245,1.0207,1.014,1.0105,1.0073,1.0131,1.0068,1.009,1.0073,1.0073,1.0073,1.0145,1.0147,1.0149,1.0151,0,1.0803,1.0764,1.0734,1.0692,1.0667,1.063,1.0587,1.0581,1.0482,1.0465,1.0436,1.0412,1.0364,1.0331,1.0285,1.0246,1.0182,1.0171,1.0178,1.0202,1.0229,1.0214,1.003,1.0168,1.0166,1.0165,1.0164,1.0163,1.0924,1.0924,1.0861,1.0831,1.079,1.0752,1.0744,1.0686,1.066,1.0613,1.0563,1.0539,1.0482,1.0412,1.0378,1.0359,1.0325,1.0336,1.0338,1.0342,1.0352,1.0232,1.035,1.035,1.0349,1.0348,1.0348,0,1.1069,1.1023,1.0996,1.0939,1.0915,1.0856,1.0806,1.079,1.077,1.0721,1.0691,1.0658,1.0625,1.0555,1.0517,1.0515,1.0485,1.0508,1.0507,1.0499,1.0385,1.0382,1.0533,1.0533,1.0533,1.0533,1.0533,1.0533,1.1141,1.1138,1.1091,1.1066,1.102,1.0995,1.0972,1.0937,1.0897,1.0863,1.0835,1.0789,1.0731,1.0688,1.0656,1.0636,1.0626,1.0658,1.0629,1.0524,1.0507,1.049,1.0487,1.0657,1.0657,1.0744,1.0745,1.0745]}]]